This demonstration page uses our WeatherBlox Daily Observations layout. Learn more.

Left ArrowRight Arrow

34.74481, -87.66753

Hourly Observations for June 25, 2018

Temp ( °F °C ) Dew Point ( °F °C ) Humidity (%) Winds ( mph kmh ) Pressure ( in mb ) Visibility ( mi km ) Precip ( " mm )
12:53 am 00:53 Clear 78 25.6 72 22.2 82 82 S 5 7 29.98 1015 10 16 0.00 0.00
1:53 am 01:53 Clear 76 24.4 72 22.2 88 88 Calm 29.97 1015 10 16 0.00 0.00
2:53 am 02:53 Clear 76 24.4 72 22.2 88 88 SSE 6 9 29.96 1015 10 16 0.00 0.00
3:53 am 03:53 Clear 77 25 73 22.8 88 88 SSE 8 13 29.94 1014 10 16 0.00 0.00
4:53 am 04:53 Clear 77 25 72 22.2 85 85 SSE 6 9 29.94 1014 10 16 0.00 0.00
5:53 am 05:53 Sunny 76 24.4 73 22.8 91 91 NNW 5 7 30.02 1017 10 16 0.00 0.00
6:53 am 06:53 Sunny 78 25.6 74 23.3 87 87 S 3 6 30.06 1018 10 16 0.00 0.00
7:53 am 07:53 Sunny 80 26.7 75 23.9 85 85 WSW 8 13 30.08 1019 10 16 0.00 0.00
8:53 am 08:53 Sunny 83 28.3 74 23.3 74 74 W 12 19 30.09 1019 10 16 0.00 0.00
9:53 am 09:53 Sunny 85 29.4 75 23.9 72 72 W 14 22 30.09 1019 10 16 0.00 0.00
10:53 am 10:53 Sunny 87 30.6 75 23.9 67 67 W 10 17 30.09 1019 10 16 0.00 0.00
11:53 am 11:53 Partly Cloudy 87 30.6 76 24.4 70 70 W 12 19 30.09 1019 10 16 0.00 0.00
12:53 pm 12:53 Partly Cloudy with Nearby Thunderstorms 89 31.7 75 23.9 63 63 W 14 22 30.06 1018 10 16 0.00 0.00
1:38 pm 13:38 Mostly Sunny 87 30.6 75 23.9 67 67 WNW 10 17 30.06 1018 10 16 0.00 0.00
1:53 pm 13:53 Partly Cloudy 88 31.1 75 23.9 66 66 W 12 19 30.04 1017 10 16 0.00 0.00
2:53 pm 14:53 Mostly Cloudy 88 31.1 75 23.9 66 66 WNW 13 20 30.03 1017 10 16 0.00 0.03
3:53 pm 15:53 Sunny 90 32.2 74 23.3 59 59 W 10 17 30.01 1016 10 16 0.00 0.00
4:53 pm 16:53 Mostly Sunny 89 31.7 74 23.3 61 61 W 7 11 30.02 1017 10 16 0.00 0.00
5:53 pm 17:53 Sunny 88 31.1 74 23.3 63 63 W 6 9 30.02 1017 10 16 0.00 0.00
6:53 pm 18:53 Mostly Cloudy 89 31.7 74 23.3 61 61 SSW 7 11 30.02 1017 10 16 0.00 0.00
7:53 pm 19:53 Sunny 86 30 75 23.9 70 70 S 3 6 30.01 1016 10 16 0.00 0.00
8:53 pm 20:53 Clear 81 27.2 76 24.4 85 85 Calm 30.03 1017 10 16 0.00 0.00
9:53 pm 21:53 Clear 81 27.2 75 23.9 82 82 Calm 30.06 1018 10 16 0.00 0.00
10:53 pm 22:53 Clear 80 26.7 75 23.9 85 85 S 6 9 30.06 1018 10 16 0.00 0.00
11:53 pm 23:53 Clear 79 26.1 73 22.8 82 82 S 5 7 30.07 1018 10 16 0.00 0.00

Powered by AerisWeather